1514080800.22,8088,8.44,73078.5,-3.99,-4.77,-4.73,0,*6F
1514080801.47,8089,8.44,73076.3,-3.99,-4.73,-4.73,0,*6A
1514080802.71,8090,8.44,73082.0,-3.99,-4.73,-4.77,0,*66
1514080803.95,8091,8.44,73098.0,-3.99,-4.77,-4.73,0,*67
1514080805.19,8092,8.44,73112.3,-3.99,-4.73,-4.77,0,*64
1514080806.43,8093,8.5,73098.0,-3.99,-4.77,-4.73,0,*65
1514080807.67,8094,8.44,73076.3,-3.99,-4.73,-4.77,0,*62
1514080808.94,8095,8.44,73042.5,-4.01,-4.77,-4.81,0,*68
1514080810.21,8096,8.44,73078.0,-4.01,-4.81,-4.77,0,*6B
1514080811.45,8097,8.44,73074.5,-3.99,-4.73,-4.73,0,*65
1514080812.69,8098,8.44,73078.0,-3.99,-4.77,-4.73,0,*6E
1514080813.93,8099,8.44,73082.0,-3.99,-4.77,-4.73,0,*6F
1514080815.17,8100,8.44,73130.3,-3.99,-4.73,-4.73,0,*6A
1514080816.41,8101,8.5,73114.5,-3.99,-4.77,-4.73,0,*6F
1514080817.65,8102,8.44,73112.3,-3.99,-4.77,-4.77,0,*68
1514080818.91,8103,8.44,73060.3,-4.01,-4.77,-4.77,0,*6F
1514080820.15,8104,8.44,73018.3,-3.99,-4.77,-4.73,0,*6A
1514080821.42,8105,8.5,73028.3,-4.01,-4.77,-4.77,0,*69
1514080822.64,8106,8.5,73040.5,-3.99,-4.73,-4.65,0,*6B
1514080823.9,8107,8.44,73048.5,-4.01,-4.81,-4.77,0,*62
1514080825.14,8108,8.5,73062.8,-3.99,-4.77,-4.73,0,*66
1514080826.39,8109,8.5,73058.0,-3.99,-4.73,-4.73,0,*63
1514080827.63,8110,8.5,73070.3,-3.99,-4.81,-4.73,0,*66
1514080828.87,8111,8.44,73032.0,-3.99,-4.77,-4.73,0,*6E
1514080830.11,8112,8.5,73048.5,-3.99,-4.73,-4.77,0,*6D
1514080831.35,8113,8.44,72994.0,-3.99,-4.77,-4.77,0,*68
1514080832.57,8114,8.5,73018.8,-3.99,-4.77,-4.65,0,*6C
1514080833.84,8115,8.44,73048.5,-4.01,-4.81,-4.81,0,*68
1514080835.08,8116,8.44,73012.5,-3.99,-4.77,-4.73,0,*69
1514080836.32,8117,8.44,72958.3,-3.99,-4.73,-4.73,0,*6C
1514080837.59,8118,8.5,72946.0,-4.01,-4.81,-4.77,0,*6C
1514080838.85,8119,8.44,72982.8,-4.01,-4.77,-4.77,0,*64
1514080840.11,8120,8.44,73048.5,-4.01,-4.77,-4.77,0,*6E
1514080841.35,8121,8.44,73044.8,-3.99,-4.77,-4.73,0,*6D
1514080842.59,8122,8.5,73032.8,-3.99,-4.77,-4.73,0,*6E
1514080843.83,8123,8.5,73024.0,-3.99,-4.77,-4.77,0,*6B
1514080845.07,8124,8.44,73018.8,-3.99,-4.73,-4.73,0,*6C
1514080846.32,8125,8.44,72996.8,-3.99,-4.73,-4.73,0,*6D
1514080847.56,8126,8.44,73026.5,-3.99,-4.77,-4.73,0,*6A
1514080848.78,8127,8.44,73028.3,-3.99,-4.65,-4.73,0,*68
1514080850.04,8128,8.44,73078.0,-4.01,-4.77,-4.77,0,*66
1514080851.26,8129,8.44,73044.5,-3.99,-4.73,-4.65,0,*66
1514080852.53,8130,8.44,73088.5,-4.01,-4.77,-4.77,0,*6F
1514080853.77,8131,8.44,73064.3,-3.99,-4.77,-4.73,0,*6C
1514080855.03,8132,8.44,73092.5,-4.01,-4.81,-4.77,0,*64
1514080856.27,8133,8.44,73046.3,-3.99,-4.77,-4.73,0,*6E
1514080857.51,8134,8.5,73076.5,-3.99,-4.73,-4.73,0,*6D
1514080858.74,8135,8.44,73064.3,-3.99,-4.73,-4.65,0,*6B
1514080859.98,8136,8.44,73054.5,-3.99,-4.73,-4.77,0,*6B
1514080861.24,8137,8.44,73066.8,-4.01,-4.77,-4.73,0,*6C
1514080862.51,8138,8.44,73100.0,-4.01,-4.81,-4.77,0,*6E
1514080863.75,8139,8.44,73072.5,-3.99,-4.77,-4.73,0,*64
1514080864.99,8140,8.5,73100.5,-3.99,-4.73,-4.77,0,*6A
1514080866.23,8141,8.44,73062.3,-3.99,-4.73,-4.73,0,*6F
1514080867.48,8142,8.44,73040.8,-3.99,-4.73,-4.73,0,*6C
1514080868.72,8143,8.44,73024.0,-3.99,-4.73,-4.73,0,*6D
1514080869.99,8144,8.44,73054.8,-4.01,-4.81,-4.77,0,*65
1514080871.25,8145,8.44,73046.8,-4.01,-4.81,-4.77,0,*64
1514080872.49,8146,8.44,73030.8,-3.99,-4.77,-4.73,0,*6C
1514080873.73,8147,8.44,73006.0,-3.99,-4.81,-4.77,0,*60
1514080875.0,8148,8.44,73004.8,-4.01,-4.77,-4.77,0,*60
1514080876.26,8149,8.44,73012.8,-4.01,-4.77,-4.77,0,*61
1514080877.5,8150,8.44,73012.0,-3.99,-4.73,-4.73,0,*6F
1514080878.76,8151,8.44,73010.8,-4.01,-4.77,-4.77,0,*68
1514080880.03,8152,8.5,73028.8,-4.01,-4.77,-4.81,0,*62
1514080881.27,8153,8.5,73030.5,-3.99,-4.73,-4.73,0,*6C
1514080882.51,8154,8.44,73028.8,-3.99,-4.77,-4.73,0,*6F
1514080883.76,8155,8.44,73026.3,-3.99,-4.73,-4.73,0,*6A
1514080885.02,8156,8.44,73020.3,-4.01,-4.81,-4.77,0,*66
1514080886.28,8157,8.44,73048.0,-4.01,-4.77,-4.77,0,*6E
1514080887.55,8158,8.5,73062.3,-4.01,-4.81,-4.77,0,*68
1514080888.79,8159,8.44,73086.8,-3.99,-4.73,-4.77,0,*62
1514080890.04,8160,8.44,73086.0,-3.99,-4.73,-4.73,0,*6C
1514080891.28,8161,8.44,73100.8,-3.99,-4.73,-4.73,0,*6D
1514080892.55,8162,8.5,73094.5,-4.01,-4.81,-4.77,0,*61
1514080893.78,8163,8.44,73104.0,-3.99,-4.77,-4.77,0,*6F
1514080895.05,8164,8.44,73126.5,-4.01,-4.77,-4.77,0,*6E
1514080896.31,8165,8.44,73146.5,-4.01,-4.81,-4.77,0,*66
1514080897.58,8166,8.44,73150.8,-4.01,-4.81,-4.77,0,*65
1514080898.82,8167,8.44,73164.3,-3.99,-4.73,-4.73,0,*6B
1514080900.09,8168,8.44,73126.0,-4.01,-4.77,-4.81,0,*6B
1514080901.33,8169,8.44,73100.5,-3.99,-4.77,-4.73,0,*61
1514080902.57,8170,8.44,73070.8,-3.99,-4.73,-4.77,0,*69
1514080903.83,8171,8.5,73052.8,-4.01,-4.77,-4.77,0,*6A
1514080905.1,8172,8.5,73088.3,-4.01,-4.81,-4.77,0,*60
1514080906.34,8173,8.44,73076.5,-3.99,-4.77,-4.77,0,*6E
1514080907.58,8174,8.44,73094.3,-3.99,-4.77,-4.77,0,*69
1514080908.81,8175,8.5,73130.5,-3.99,-4.77,-4.77,0,*68
1514080910.05,8176,8.44,73098.3,-3.99,-4.77,-4.73,0,*6F
1514080911.29,8177,8.44,72950.3,-3.99,-4.77,-4.73,0,*6E
1514080912.53,8178,8.5,73012.0,-3.99,-4.77,-4.73,0,*61
1514080913.8,8179,8.44,73022.3,-4.01,-4.81,-4.77,0,*6B
1514080915.04,8180,8.44,73006.3,-3.99,-4.73,-4.73,0,*62
1514080916.31,8181,8.5,72990.5,-4.01,-4.81,-4.77,0,*6C
1514080917.55,8182,8.44,72976.8,-3.99,-4.73,-4.73,0,*60
1514080918.82,8183,8.44,72956.5,-4.01,-4.77,-4.73,0,*63
1514080920.08,8184,8.44,72980.0,-4.01,-4.77,-4.81,0,*69
1514080921.32,8185,8.44,73000.3,-3.99,-4.73,-4.77,0,*63
1514080922.56,8186,8.44,73046.0,-3.99,-4.77,-4.77,0,*64
1514080923.8,8187,8.44,73076.0,-3.99,-4.73,-4.77,0,*61
1514080925.05,8188,8.44,73098.0,-3.99,-4.77,-4.81,0,*63
1514080926.32,8189,8.44,73124.0,-4.01,-4.81,-4.81,0,*6D
1514080927.58,8190,8.44,73126.3,-4.01,-4.77,-4.77,0,*65
1514080928.82,8191,8.44,73138.3,-3.99,-4.73,-4.73,0,*62
1514080930.06,8192,8.44,73144.3,-3.99,-4.77,-4.73,0,*65
1514080931.32,8193,8.44,73136.8,-4.01,-4.77,-4.77,0,*66
1514080932.59,8194,8.5,73136.0,-4.01,-4.77,-4.77,0,*61
1514080933.85,8195,8.5,73122.5,-4.01,-4.77,-4.81,0,*69
1514080935.12,8196,8.44,73114.3,-4.01,-4.77,-4.81,0,*6A
1514080936.36,8197,8.44,73148.8,-3.99,-4.77,-4.73,0,*60
1514080937.63,8198,8.5,73088.0,-4.01,-4.81,-4.81,0,*6D
1514080938.89,8199,8.5,73000.5,-4.01,-4.77,-4.77,0,*6C
1514080940.13,8200,8.44,72872.3,-3.99,-4.77,-4.73,0,*6D
1514080941.37,8201,8.44,72786.5,-3.99,-4.73,-4.73,0,*68
1514080942.64,8202,8.44,72720.0,-4.01,-4.81,-4.77,0,*64
1514080943.9,8203,8.44,72758.5,-4.01,-4.81,-4.77,0,*65
1514080945.17,8204,8.44,72824.5,-4.01,-4.77,-4.77,0,*6B
1514080946.43,8205,8.44,72864.0,-4.01,-4.81,-4.77,0,*63
1514080947.67,8206,8.44,72952.3,-3.99,-4.77,-4.77,0,*6F
1514080948.94,8207,8.44,72970.8,-4.01,-4.81,-4.77,0,*61
1514080950.21,8208,8.44,73008.0,-4.01,-4.81,-4.81,0,*67
1514080951.48,8209,8.44,73020.3,-4.01,-4.81,-4.81,0,*66
1514080952.74,8210,8.44,73054.0,-4.01,-4.77,-4.77,0,*6E
1514080954.0,8211,8.44,73086.5,-4.01,-4.77,-4.77,0,*6F
1514080955.26,8212,8.44,73090.0,-4.01,-4.77,-4.77,0,*6C
1514080956.5,8213,8.5,73090.0,-3.99,-4.77,-4.73,0,*6F
1514080957.77,8214,8.44,73102.3,-4.01,-4.81,-4.77,0,*63
1514080959.03,8215,8.44,73110.3,-4.01,-4.77,-4.77,0,*6B
1514080960.29,8216,8.44,73116.3,-4.01,-4.77,-4.77,0,*68
1514080961.56,8217,8.44,73138.8,-4.01,-4.77,-4.77,0,*69
1514080962.82,8218,8.44,73166.8,-4.01,-4.77,-4.77,0,*66
1514080964.08,8219,8.5,73168.5,-4.01,-4.81,-4.77,0,*6E
1514080965.33,8220,8.44,73166.0,-3.99,-4.73,-4.73,0,*6B
1514080966.59,8221,8.44,73184.0,-4.01,-4.77,-4.77,0,*6C
1514080967.83,8222,8.44,73152.0,-3.99,-4.73,-4.73,0,*69
1514080969.09,8223,8.44,73142.5,-4.01,-4.77,-4.77,0,*6E
1514080970.34,8224,8.44,73146.3,-3.99,-4.73,-4.77,0,*6B
1514080971.6,8225,8.5,73140.8,-4.01,-4.81,-4.77,0,*61
1514080972.87,8226,8.5,73134.5,-4.01,-4.81,-4.81,0,*6B
1514080974.12,8227,8.44,73122.8,-3.99,-4.73,-4.73,0,*6C
1514080975.38,8228,8.44,73122.5,-4.01,-4.77,-4.77,0,*65
1514080976.64,8229,8.44,73126.3,-4.01,-4.77,-4.77,0,*64
1514080977.9,8230,8.44,73108.3,-4.01,-4.77,-4.77,0,*6C
1514080979.15,8231,8.44,73114.8,-3.99,-4.73,-4.73,0,*6B
1514080980.39,8232,8.44,73108.8,-3.99,-4.77,-4.77,0,*68
1514080981.65,8233,8.44,73108.8,-4.01,-4.81,-4.81,0,*6F
1514080982.89,8234,8.44,73090.8,-3.99,-4.77,-4.77,0,*6E
1514080984.16,8235,8.44,73042.8,-4.01,-4.81,-4.81,0,*69
1514080985.4,8236,8.44,73022.3,-3.99,-4.77,-4.73,0,*68
1514080986.67,8237,8.44,73020.8,-4.01,-4.81,-4.81,0,*6B
1514080987.94,8238,8.44,73048.8,-4.01,-4.77,-4.81,0,*6D
1514080989.2,8239,8.44,73022.5,-4.01,-4.77,-4.77,0,*65
1514080990.47,8240,8.44,73018.0,-4.01,-4.77,-4.81,0,*62
1514080991.7,8241,8.44,73016.3,-3.99,-4.77,-4.73,0,*68
1514080992.95,8242,8.44,73124.3,-3.99,-4.73,-4.73,0,*6F
1514080994.19,8243,8.44,73108.3,-3.99,-4.73,-4.77,0,*6A
1514080995.45,8244,8.5,73070.0,-4.01,-4.77,-4.77,0,*6F
1514080996.7,8245,8.5,73050.8,-3.99,-4.73,-4.77,0,*6C
1514080997.96,8246,8.44,73064.8,-4.01,-4.81,-4.77,0,*64
1514080999.22,8247,8.44,73076.0,-4.01,-4.77,-4.77,0,*6C
1514081000.49,8248,8.44,73074.3,-4.01,-4.77,-4.81,0,*6A
1514081001.75,8249,8.44,73048.3,-4.01,-4.81,-4.77,0,*6B
1514081003.02,8250,8.44,73026.3,-4.01,-4.77,-4.77,0,*6A
1514081004.28,8251,8.44,73030.8,-4.01,-4.81,-4.77,0,*62
1514081005.55,8252,8.44,73020.8,-4.01,-4.77,-4.77,0,*68
1514081006.81,8253,8.5,73016.3,-4.01,-4.77,-4.77,0,*69
1514081008.05,8254,8.44,73014.0,-3.99,-4.73,-4.73,0,*68
1514081009.31,8255,8.44,73010.5,-4.01,-4.77,-4.77,0,*6F
1514081010.58,8256,8.44,73002.5,-4.01,-4.77,-4.77,0,*6C
1514081011.84,8257,8.44,72992.8,-4.01,-4.77,-4.77,0,*6D
1514081013.08,8258,8.44,72984.3,-3.99,-4.77,-4.73,0,*60
1514081014.34,8259,8.44,72988.0,-4.01,-4.77,-4.81,0,*6A
1514081015.59,8260,8.44,72996.0,-3.99,-4.73,-4.73,0,*6F
1514081016.81,8261,8.5,72996.0,-3.99,-4.65,-4.77,0,*6D
1514081018.08,8262,8.44,72992.3,-4.01,-4.77,-4.81,0,*62
1514081019.31,8263,8.44,72992.5,-4.03,-4.81,-4.77,0,*61
1514081020.58,8264,8.44,73014.3,-4.01,-4.77,-4.81,0,*64
1514081021.85,8265,8.44,73028.5,-4.01,-4.77,-4.81,0,*65
1514081023.11,8266,8.44,73046.5,-4.01,-4.77,-4.77,0,*6F
1514081024.37,8267,8.44,73054.5,-4.01,-4.77,-4.77,0,*6E
1514081025.64,8268,8.44,73086.5,-4.01,-4.81,-4.77,0,*68
1514081026.9,8269,8.44,73074.0,-4.01,-4.81,-4.77,0,*69
1514081028.16,8270,8.44,73090.3,-4.01,-4.77,-4.77,0,*68
1514081029.43,8271,8.44,73062.3,-4.01,-4.81,-4.69,0,*6F
1514081030.7,8272,8.44,73070.8,-4.01,-4.81,-4.77,0,*63
1514081031.96,8273,8.5,73036.8,-4.01,-4.77,-4.77,0,*6B
1514081033.23,8274,8.44,73030.5,-4.01,-4.77,-4.81,0,*65
1514081034.47,8275,8.44,73064.3,-3.99,-4.73,-4.77,0,*6F
1514081035.71,8276,8.44,73130.3,-3.99,-4.77,-4.73,0,*6C
1514081036.97,8277,8.44,73120.8,-4.01,-4.81,-4.77,0,*66
1514081038.24,8278,8.44,73092.3,-4.01,-4.77,-4.77,0,*60
1514081039.5,8279,8.44,73114.0,-4.01,-4.77,-4.77,0,*61
1514081040.76,8280,8.44,73156.8,-4.01,-4.77,-4.77,0,*67
1514081042.03,8281,8.44,73174.5,-4.01,-4.81,-4.81,0,*66
1514081043.3,8282,8.44,73170.8,-4.01,-4.81,-4.81,0,*65
1514081044.56,8283,8.44,73170.0,-4.01,-4.77,-4.77,0,*64
1514081045.82,8284,8.44,73154.3,-4.01,-4.77,-4.77,0,*63
1514081047.09,8285,8.44,73156.5,-4.01,-4.81,-4.77,0,*6B
1514081048.35,8286,8.44,73182.0,-4.01,-4.77,-4.77,0,*61
1514081049.62,8287,8.5,73196.3,-4.01,-4.81,-4.77,0,*69
1514081050.88,8288,8.44,73180.5,-4.01,-4.77,-4.77,0,*6F
1514081052.14,8289,8.44,73154.3,-4.01,-4.77,-4.77,0,*6E
1514081053.41,8290,8.44,73120.3,-4.01,-4.77,-4.77,0,*66
1514081054.67,8291,8.44,73120.8,-4.01,-4.77,-4.69,0,*68
1514081055.91,8292,8.44,73178.0,-4.03,-4.77,-4.77,0,*66
1514081057.17,8293,8.44,73166.8,-4.01,-4.77,-4.77,0,*65
1514081058.44,8294,8.44,73032.8,-4.01,-4.81,-4.77,0,*6B
1514081059.67,8295,8.44,72996.8,-4.03,-4.77,-4.77,0,*61
1514081060.94,8296,8.5,72992.3,-4.01,-4.81,-4.81,0,*60
1514081062.2,8297,8.5,72946.0,-4.01,-4.77,-4.81,0,*68
1514081063.47,8298,8.44,72938.3,-4.01,-4.81,-4.81,0,*6E
1514081064.74,8299,8.44,72968.8,-4.01,-4.81,-4.81,0,*6F
1514081066.0,8300,8.44,72980.0,-4.01,-4.77,-4.77,0,*6E
1514081067.24,8301,8.44,72980.8,-4.03,-4.77,-4.77,0,*6D
1514081068.48,8302,8.5,72988.0,-4.03,-4.81,-4.77,0,*67
1514081069.72,8303,8.44,72994.0,-4.03,-4.81,-4.77,0,*66
1514081070.98,8304,8.44,73002.0,-4.01,-4.81,-4.77,0,*63
1514081072.25,8305,8.44,73004.5,-4.01,-4.77,-4.81,0,*62
1514081073.51,8306,8.44,73010.3,-4.01,-4.77,-4.77,0,*68
1514081074.78,8307,8.44,73020.3,-4.01,-4.81,-4.77,0,*60
1514081076.04,8308,8.5,73022.8,-4.01,-4.77,-4.81,0,*6F
1514081077.31,8309,8.44,73006.0,-4.01,-4.77,-4.81,0,*6E
1514081078.57,8310,8.44,73008.5,-4.01,-4.77,-4.77,0,*6F
1514081079.84,8311,8.44,73014.0,-4.01,-4.81,-4.77,0,*67
1514081081.1,8312,8.5,73026.3,-4.01,-4.81,-4.77,0,*64
1514081082.34,8313,8.5,73028.3,-4.03,-4.77,-4.69,0,*61
1514081083.58,8314,8.44,73032.3,-4.03,-4.81,-4.77,0,*60
1514081084.82,8315,8.44,73030.3,-4.03,-4.81,-4.69,0,*6E
1514081086.06,8316,8.44,73020.3,-4.03,-4.77,-4.77,0,*6B
1514081087.3,8317,8.44,73018.8,-4.03,-4.73,-4.85,0,*63
1514081088.54,8318,8.44,73018.0,-4.03,-4.77,-4.81,0,*6C
1514081089.78,8319,8.44,73014.8,-4.03,-4.77,-4.81,0,*6D
1514081091.02,8320,8.44,73022.0,-4.03,-4.85,-4.81,0,*6A
1514081092.26,8321,8.44,73046.3,-4.03,-4.81,-4.77,0,*66
1514081093.49,8322,8.44,73054.3,-4.03,-4.77,-4.77,0,*6C
1514081094.74,8323,8.44,73048.5,-4.05,-4.81,-4.77,0,*62
1514081095.97,8324,8.44,73024.8,-4.03,-4.77,-4.77,0,*6A
1514081097.21,8325,8.44,73022.3,-4.03,-4.77,-4.81,0,*62
1514081098.45,8326,8.44,73060.5,-4.03,-4.77,-4.77,0,*68
1514081099.71,8327,8.44,73062.3,-4.01,-4.77,-4.77,0,*6B
1514081100.97,8328,8.44,73060.0,-4.01,-4.81,-4.77,0,*6D
1514081102.24,8329,8.5,73090.3,-4.01,-4.77,-4.77,0,*65
1514081103.5,8330,8.5,73096.0,-4.01,-4.77,-4.81,0,*64
1514081104.74,8331,8.44,73082.0,-4.03,-4.81,-4.81,0,*6E
1514081105.99,8332,8.44,73074.8,-4.03,-4.81,-4.81,0,*6D
1514081107.22,8333,8.44,73076.5,-4.03,-4.77,-4.77,0,*6C
1514081108.46,8334,8.44,73070.0,-4.03,-4.77,-4.77,0,*6B
1514081109.69,8335,8.5,73064.3,-4.03,-4.77,-4.77,0,*6A
1514081110.93,8336,8.5,73042.8,-4.03,-4.69,-4.77,0,*66
1514081112.17,8337,8.44,73022.0,-4.03,-4.81,-4.77,0,*61
1514081113.41,8338,8.44,73044.3,-4.03,-4.77,-4.81,0,*6E
1514081114.64,8339,8.44,73048.5,-4.03,-4.77,-4.77,0,*66
1514081115.88,8340,8.44,73070.5,-4.03,-4.81,-4.77,0,*61
1514081117.12,8341,8.44,73072.8,-4.03,-4.77,-4.81,0,*60
1514081118.36,8342,8.44,73072.3,-4.03,-4.77,-4.81,0,*63
1514081119.6,8343,8.44,73066.3,-4.03,-4.81,-4.77,0,*62
1514081120.83,8344,8.44,73070.5,-4.03,-4.77,-4.69,0,*63
1514081122.07,8345,8.44,73074.5,-4.03,-4.81,-4.77,0,*64
1514081123.31,8346,8.44,73076.5,-4.03,-4.77,-4.69,0,*61
1514081124.55,8347,8.44,73086.8,-4.03,-4.77,-4.77,0,*6F
1514081125.79,8348,8.44,73100.0,-4.03,-4.81,-4.81,0,*60
1514081127.03,8349,8.44,73116.3,-4.03,-4.77,-4.77,0,*61
1514081128.26,8350,8.44,73132.8,-4.03,-4.69,-4.77,0,*66
1514081129.5,8351,8.5,73142.0,-4.03,-4.81,-4.81,0,*68
1514081130.74,8352,8.44,73136.5,-4.03,-4.81,-4.77,0,*62
1514081131.98,8353,8.44,73140.0,-4.03,-4.77,-4.81,0,*63
1514081133.22,8354,8.44,73144.5,-4.03,-4.81,-4.81,0,*6D
1514081134.46,8355,8.44,73130.8,-4.03,-4.77,-4.77,0,*6C
1514081135.7,8356,8.44,73122.8,-4.03,-4.81,-4.77,0,*66
1514081136.94,8357,8.44,73116.3,-4.03,-4.81,-4.81,0,*6E
1514081138.18,8358,8.5,73108.3,-4.03,-4.77,-4.77,0,*61
1514081139.41,8359,8.5,73096.3,-4.03,-4.77,-4.77,0,*60
1514081140.65,8360,8.44,73082.8,-4.03,-4.77,-4.77,0,*6A
1514081141.89,8361,8.44,73070.5,-4.03,-4.81,-4.77,0,*62
1514081143.12,8362,8.5,73076.3,-4.03,-4.69,-4.81,0,*6E
1514081144.36,8363,8.44,73084.0,-4.03,-4.77,-4.77,0,*69
1514081145.6,8364,8.44,73062.5,-4.03,-4.77,-4.81,0,*67
1514081146.83,8365,8.44,73084.0,-4.03,-4.77,-4.77,0,*6F
1514081148.07,8366,8.44,73092.8,-4.03,-4.77,-4.81,0,*65
1514081149.31,8367,8.44,73098.0,-4.03,-4.81,-4.77,0,*64
1514081150.55,8368,8.44,73100.0,-4.03,-4.81,-4.77,0,*6B
1514081151.79,8369,8.44,73090.3,-4.03,-4.69,-4.81,0,*65
1514081153.03,8370,8.44,73088.8,-4.03,-4.77,-4.77,0,*6B
1514081154.27,8371,8.44,73108.8,-4.03,-4.77,-4.81,0,*63
1514081155.5,8372,8.44,73120.5,-4.03,-4.81,-4.77,0,*60
1514081156.74,8373,8.44,73102.3,-4.03,-4.77,-4.81,0,*61
1514081157.98,8374,8.5,73130.8,-4.03,-4.77,-4.77,0,*6F
1514081159.22,8375,8.44,73120.8,-4.03,-4.77,-4.81,0,*67
1514081160.45,8376,8.44,73118.0,-4.03,-4.77,-4.77,0,*6D
1514081161.72,8377,8.44,73104.3,-4.01,-4.81,-4.77,0,*67
1514081162.96,8378,8.44,73086.8,-4.03,-4.81,-4.77,0,*6A
1514081164.2,8379,8.44,73054.0,-4.03,-4.81,-4.81,0,*62
1514081165.44,8380,8.5,73028.5,-4.03,-4.81,-4.77,0,*6D
1514081166.68,8381,8.44,72998.0,-4.05,-4.85,-4.81,0,*67
1514081167.92,8382,8.44,72960.8,-4.03,-4.69,-4.77,0,*69
1514081169.17,8383,8.5,72924.3,-4.05,-4.81,-4.85,0,*65
1514081170.4,8384,8.44,72914.8,-4.03,-4.77,-4.77,0,*60
1514081171.65,8385,8.44,72914.8,-4.05,-4.81,-4.81,0,*67
1514081172.89,8386,8.44,72934.0,-4.05,-4.81,-4.81,0,*64
1514081174.13,8387,8.44,72954.8,-4.03,-4.69,-4.77,0,*6C
1514081175.37,8388,8.44,72990.8,-4.03,-4.77,-4.81,0,*65
1514081176.61,8389,8.44,73018.8,-4.03,-4.81,-4.77,0,*64
1514081177.85,8390,8.44,73044.0,-4.05,-4.81,-4.73,0,*6E
1514081179.09,8391,8.44,73078.8,-4.03,-4.77,-4.81,0,*6D
1514081180.33,8392,8.44,73100.0,-4.03,-4.77,-4.77,0,*67
1514081181.57,8393,8.44,73110.8,-4.05,-4.81,-4.85,0,*64
1514081182.81,8394,8.44,73120.5,-4.03,-4.77,-4.77,0,*61
1514081184.06,8395,8.44,73106.5,-4.05,-4.81,-4.81,0,*66
1514081185.3,8396,8.44,73082.5,-4.05,-4.81,-4.85,0,*61
1514081186.54,8397,8.44,73066.8,-4.03,-4.81,-4.77,0,*6B
1514081187.78,8398,8.44,73036.8,-4.03,-4.77,-4.77,0,*6D
1514081189.01,8399,8.44,73038.3,-4.03,-4.77,-4.77,0,*6C
1514081190.25,8400,8.5,73040.8,-4.03,-4.77,-4.77,0,*6B
1514081191.5,8401,8.44,73068.8,-4.05,-4.81,-4.81,0,*6C
1514081192.73,8402,8.44,73040.8,-4.03,-4.77,-4.77,0,*69
1514081193.97,8403,8.44,73046.3,-4.03,-4.81,-4.81,0,*68
1514081195.21,8404,8.44,73040.0,-4.03,-4.77,-4.77,0,*6F
1514081196.44,8405,8.44,73030.5,-4.03,-4.77,-4.77,0,*6E
1514081197.68,8406,8.5,73036.3,-4.03,-4.77,-4.81,0,*64
1514081198.92,8407,8.44,73032.0,-4.03,-4.77,-4.77,0,*6C
1514081200.15,8408,8.44,73026.3,-4.03,-4.77,-4.77,0,*63
1514081201.4,8409,8.44,73028.0,-4.03,-4.81,-4.69,0,*64
1514081202.63,8410,8.44,73018.3,-4.03,-4.77,-4.77,0,*6A
1514081203.87,8411,8.5,73024.0,-4.03,-4.77,-4.77,0,*6B
1514081205.11,8412,8.44,73020.0,-4.05,-4.85,-4.81,0,*6A
1514081206.35,8413,8.44,73020.5,-4.03,-4.77,-4.77,0,*69
1514081207.58,8414,8.44,73030.3,-4.03,-4.77,-4.77,0,*6E
1514081208.83,8415,8.5,73044.3,-4.05,-4.85,-4.81,0,*6D
1514081210.06,8416,8.44,73062.5,-4.03,-4.69,-4.77,0,*63
1514081211.3,8417,8.44,73082.3,-4.03,-4.77,-4.77,0,*6D
1514081212.54,8418,8.44,73086.3,-4.03,-4.77,-4.77,0,*62
1514081213.77,8419,8.44,73098.5,-4.03,-4.77,-4.77,0,*63
1514081215.01,8420,8.44,73102.0,-4.03,-4.81,-4.77,0,*60
1514081216.25,8421,8.44,73100.0,-4.03,-4.81,-4.77,0,*61
1514081217.49,8422,8.44,73082.0,-4.03,-4.77,-4.69,0,*64
1514081218.72,8423,8.5,73074.3,-4.03,-4.77,-4.77,0,*6A
1514081219.96,8424,8.44,73074.5,-4.03,-4.77,-4.81,0,*64
1514081221.21,8425,8.44,73074.3,-4.05,-4.81,-4.81,0,*6A
1514081222.44,8426,8.44,73084.5,-4.03,-4.77,-4.77,0,*6F
1514081223.69,8427,8.44,73096.8,-4.05,-4.81,-4.73,0,*65
1514081224.93,8428,8.44,73096.5,-4.03,-4.81,-4.77,0,*68
1514081226.17,8429,8.44,73094.0,-4.05,-4.81,-4.73,0,*6B
1514081227.41,8430,8.44,73084.5,-4.03,-4.81,-4.77,0,*61
1514081228.64,8431,8.44,73086.5,-4.03,-4.77,-4.77,0,*69
1514081229.89,8432,8.44,73092.0,-4.05,-4.81,-4.81,0,*6C
1514081231.13,8433,8.44,73110.5,-4.03,-4.77,-4.77,0,*6B
1514081232.37,8434,8.44,73114.3,-4.05,-4.81,-4.81,0,*6A
1514081233.62,8435,8.44,73104.8,-4.05,-4.81,-4.81,0,*6B
1514081234.86,8436,8.44,73136.3,-4.05,-4.85,-4.81,0,*6C
1514081236.11,8437,8.44,73150.3,-4.05,-4.81,-4.81,0,*69
1514081237.36,8438,8.44,73158.0,-4.05,-4.81,-4.81,0,*66
1514081238.61,8439,8.44,73220.3,-4.05,-4.81,-4.81,0,*67
1514081239.85,8440,8.44,73186.8,-4.03,-4.77,-4.81,0,*66
1514081241.09,8441,8.44,73058.8,-4.05,-4.77,-4.81,0,*61
1514081242.33,8442,8.44,73034.5,-4.03,-4.77,-4.69,0,*62
1514081243.56,8443,8.44,73036.0,-4.03,-4.81,-4.77,0,*65
1514081244.81,8444,8.44,73034.3,-4.05,-4.77,-4.81,0,*64
1514081246.04,8445,8.5,73048.8,-4.03,-4.77,-4.77,0,*6A
1514081247.28,8446,8.44,73054.0,-4.03,-4.77,-4.77,0,*69
1514081248.51,8447,8.44,73072.0,-4.03,-4.77,-4.77,0,*68
1514081249.75,8448,8.44,73102.3,-4.03,-4.77,-4.77,0,*67
1514081250.99,8449,8.44,73108.8,-4.03,-4.77,-4.77,0,*66
1514081252.23,8450,8.44,73092.0,-4.05,-4.81,-4.73,0,*65
1514081253.48,8451,8.44,73030.3,-4.05,-4.85,-4.85,0,*69
1514081254.72,8452,8.44,73024.0,-4.05,-4.73,-4.81,0,*67
1514081255.96,8453,8.44,73024.3,-4.03,-4.77,-4.77,0,*6D
1514081257.19,8454,8.44,73010.5,-4.03,-4.69,-4.77,0,*65
1514081258.43,8455,8.44,73008.3,-4.03,-4.77,-4.77,0,*6B
1514081259.67,8456,8.44,72976.8,-4.03,-4.85,-4.81,0,*6C
1514081260.92,8457,8.44,72962.5,-4.05,-4.81,-4.81,0,*6F
1514081262.15,8458,8.44,72848.0,-4.03,-4.77,-4.77,0,*66
1514081263.39,8459,8.5,72868.0,-4.03,-4.81,-4.73,0,*6A
1514081264.63,8460,8.44,73046.5,-4.03,-4.77,-4.77,0,*6D
1514081265.87,8461,8.44,73040.8,-4.05,-4.73,-4.85,0,*63
1514081267.12,8462,8.44,73006.5,-4.05,-4.85,-4.73,0,*60
1514081268.35,8463,8.44,72954.8,-4.03,-4.77,-4.77,0,*6E
1514081269.59,8464,8.44,72970.5,-4.03,-4.77,-4.77,0,*69
1514081270.82,8465,8.44,73028.0,-4.03,-4.85,-4.73,0,*61
1514081272.06,8466,8.5,73042.3,-4.03,-4.77,-4.77,0,*6B
1514081273.31,8467,8.44,73096.8,-4.05,-4.81,-4.85,0,*68
1514081274.55,8468,8.44,73088.3,-4.05,-4.81,-4.81,0,*63
1514081275.79,8469,8.44,73108.8,-4.03,-4.81,-4.77,0,*6D
1514081277.04,8470,8.44,73048.8,-4.05,-4.85,-4.81,0,*6E
1514081278.28,8471,8.44,73036.3,-4.05,-4.81,-4.81,0,*6B
1514081279.52,8472,8.44,73014.0,-4.03,-4.77,-4.69,0,*61
1514081280.76,8473,8.5,72964.5,-4.03,-4.77,-4.69,0,*60
1514081282.01,8474,8.5,72938.3,-4.05,-4.81,-4.81,0,*6E
1514081283.26,8475,8.44,73042.8,-4.05,-4.73,-4.81,0,*62
1514081284.5,8476,8.44,73060.5,-4.05,-4.73,-4.81,0,*61
1514081285.75,8477,8.5,73038.3,-4.05,-4.81,-4.85,0,*69
1514081287.0,8478,8.44,73028.8,-4.05,-4.81,-4.81,0,*62
1514081288.23,8479,8.44,72940.3,-4.03,-4.69,-4.77,0,*6A
1514081289.47,8480,8.44,72918.3,-4.03,-4.69,-4.81,0,*65
1514081290.72,8481,8.44,72996.5,-4.05,-4.73,-4.81,0,*69
1514081291.96,8482,8.44,73084.5,-4.05,-4.69,-4.85,0,*65
1514081293.21,8483,8.44,73048.3,-4.05,-4.81,-4.73,0,*6B
1514081294.45,8484,8.44,72994.0,-4.03,-4.77,-4.81,0,*6E
1514081295.69,8485,8.44,72984.0,-4.03,-4.77,-4.69,0,*69
1514081296.93,8486,8.5,72976.8,-4.05,-4.81,-4.85,0,*67
1514081298.17,8487,8.44,72976.0,-4.03,-4.81,-4.69,0,*62
1514081299.41,8488,8.44,72932.3,-4.03,-4.81,-4.77,0,*62
1514081300.65,8489,8.44,72944.0,-4.03,-4.77,-4.77,0,*6A
1514081301.9,8490,8.44,72994.0,-4.05,-4.73,-4.81,0,*69
1514081303.14,8491,8.5,73032.0,-4.05,-4.81,-4.81,0,*65
1514081304.38,8492,8.5,73038.5,-4.03,-4.77,-4.77,0,*60
1514081305.62,8493,8.44,73080.3,-4.05,-4.85,-4.81,0,*63
1514081306.86,8494,8.44,73074.8,-4.03,-4.77,-4.69,0,*69
1514081308.1,8495,8.44,73108.3,-4.05,-4.85,-4.73,0,*68
1514081309.34,8496,8.44,73114.8,-4.03,-4.81,-4.77,0,*6D
1514081310.59,8497,8.44,73088.8,-4.05,-4.81,-4.73,0,*6E
1514081311.83,8498,8.44,73066.8,-4.03,-4.81,-4.77,0,*63
1514081313.07,8499,8.44,73054.5,-4.05,-4.77,-4.81,0,*64
1514081314.31,8500,8.44,73048.3,-4.03,-4.77,-4.81,0,*63
1514081315.55,8501,8.44,73050.5,-4.05,-4.81,-4.81,0,*6D
1514081316.79,8502,8.44,73054.3,-4.03,-4.77,-4.77,0,*68
1514081318.03,8503,8.44,73082.3,-4.03,-4.81,-4.77,0,*60
1514081319.27,8504,8.5,73090.8,-4.03,-4.77,-4.81,0,*67
1514081320.51,8505,8.44,73078.8,-4.05,-4.77,-4.81,0,*60
1514081321.75,8506,8.44,73078.8,-4.03,-4.77,-4.77,0,*6C
1514081322.99,8507,8.5,73070.3,-4.03,-4.77,-4.81,0,*64
1514081324.23,8508,8.44,73032.0,-4.05,-4.77,-4.81,0,*6D
1514081325.47,8509,8.44,73022.8,-4.05,-4.85,-4.81,0,*61
1514081326.72,8510,8.44,73012.0,-4.05,-4.85,-4.81,0,*69
1514081327.95,8511,8.44,73006.3,-4.03,-4.77,-4.77,0,*6A
1514081329.19,8512,8.44,73004.3,-4.03,-4.77,-4.77,0,*69
1514081330.43,8513,8.44,73024.0,-4.03,-4.81,-4.77,0,*61
1514081331.67,8514,8.44,73040.0,-4.03,-4.81,-4.81,0,*6F
1514081332.91,8515,8.44,73060.0,-4.03,-4.77,-4.77,0,*6E
1514081334.15,8516,8.44,73080.0,-4.05,-4.81,-4.85,0,*6F
1514081335.4,8517,8.44,73106.8,-4.05,-4.81,-4.85,0,*6E